Location: *
(42.0175°N, 9.4056°E)
Time: 00:58:59
(UTC+00:00)

Okean 2 - Pass Details

Date: 25 August 2019
Orbit: 560 x 577 km, 82.5° (Epoch: 17 October)

Event Time Altitude Azimuth Distance (km) Brightness Sun altitude
Rises 20:17:43 0° 359° (N) 2,769 7.5 -22.2°
Reaches altitude 10° 20:20:01 10° 7° (N) 1,865 6.4 -22.5°
Enters shadow 20:22:55 34° 43° (NE) 946 4.4 -22.9°
